Location: Julian California
(33.0790°N, 116.6010°W)
Time: 09:18:36
(UTC-08:00)

USA 229 - Pass Details

Date: 12 July 2018
Orbit: 1022 x 1190 km, 63.4° (Epoch: 06 November)

Event Time Altitude Azimuth Distance (km) Brightness Sun altitude
Rises 22:33:39 0° 330° (NNW) 3,976 8.0 -25.9°
Reaches altitude 10° 22:36:19 10° 332° (NNW) 3,035 7.1 -26.2°
Maximum altitude 22:43:38 81° 59° (ENE) 1,185 3.8 -27.1°
Enters shadow 22:45:10 60° 134° (SE) 1,327 3.8 -27.3°
